Lid_Strength_Index
0 0 0 0 0 1 1 1 1 1 2 3 2 3 4 5 5 4 4 4 4 3 3 3 2 2 4 7 8 4 1 1 3 5 7 7 9 10 11 9 9 10 10 9 8 8 9
2 1 1 1 1 1 0 1 2 3 3 3 3 4 5 6 5 5 5 5 4 3 3 3 2 3 7 12 6 4 4 6 6 7 7 7 8 7 9 9 11 9 9 9 9 9 8
3 3 3 1 1 1 1 3 3 3 4 4 4 5 5 6 6 5 5 5 5 5 4 3 3 5 9 10 7 7 6 7 7 7 7 6 6 7 8 9 7 7 10 10 9 9 10
3 3 4 4 4 5 4 4 4 4 4 4 5 5 6 6 6 5 5 5 5 5 4 4 3 7 10 6 8 7 8 8 6 7 7 7 6 7 8 8 8 10 10 13 10 9 9
3 3 4 4 4 5 5 5 5 4 4 4 5 5 6 6 6 5 5 5 5 4 4 4 7 7 10 5 8 7 6 7 7 7 7 6 6 8 8 11 13 12 14 13 11 8 9
3 3 4 4 4 5 5 5 5 5 5 5 5 5 6 5 5 5 5 5 5 6 6 6 6 11 9 10 7 5 5 4 6 8 8 8 10 12 12 13 16 14 14 13 13 11 10
3 3 3 4 4 4 4 5 5 5 5 4 4 6 6 6 6 6 6 9 10 10 9 9 9 10 8 7 6 7 6 5 6 8 12 10 13 14 12 11 11 11 12 13 12 10 10
2 3 3 3 4 4 4 4 5 5 6 6 5 6 6 6 6 6 7 9 8 8 12 8 8 8 7 7 10 8 7 8 9 11 10 12 14 10 9 9 10 11 12 13 11 9 10
2 3 3 4 3 3 4 4 5 5 5 5 5 5 6 6 6 8 10 8 6 7 13 11 10 10 9 9 11 11 9 8 10 11 11 12 11 9 9 10 11 12 12 12 12 10 11
2 3 3 3 3 3 3 4 4 4 5 5 5 5 6 6 9 9 9 6 6 6 16 13 12 10 9 10 12 9 8 9 10 12 11 12 10 10 11 12 11 13 10 10 11 13 16
2 3 3 3 2 3 3 3 3 4 4 5 5 5 6 6 9 9 6 5 6 7 21 11 11 8 9 11 10 10 8 10 13 11 12 13 12 12 13 12 10 12 9 11 11 13 15
1 2 2 2 3 3 3 3 3 3 3 4 4 4 5 7 8 8 5 4 6 14 21 12 10 11 12 11 11 8 10 9 10 12 12 13 9 11 11 9 9 9 11 12 12 14 18
1 1 1 1 1 2 2 2 3 3 3 4 4 4 6 6 9 5 4 6 15 18 11 12 12 10 11 11 11 10 10 12 15 16 16 13 13 11 9 11 10 11 14 18 19 19 19
2 2 1 1 1 1 1 1 1 2 2 3 4 5 6 7 6 5 6 11 19 15 14 9 10 10 12 10 10 10 11 14 11 12 13 16 17 13 10 11 12 13 13 18 20 20 17
3 2 2 1 1 1 1 1 1 1 1 1 1 4 6 6 5 5 8 16 17 14 11 12 11 13 12 10 10 10 11 11 10 10 13 13 14 10 9 9 10 13 14 11 14 15 17
3 3 2 1 2 1 1 1 1 0 0 1 3 5 6 3 3 6 10 16 14 10 10 10 14 12 13 12 11 10 10 9 9 8 8 11 14 10 9 9 10 11 10 15 15 19 21
2 3 2 2 1 2 1 0 0 0 0 0 4 8 5 1 2 7 15 15 11 9 9 11 12 12 12 13 12 12 11 9 8 8 8 10 12 12 9 11 12 11 12 11 12 14 19
2 2 2 2 1 1 2 1 0 -0 -0 1 4 11 4 1 9 10 13 11 9 10 8 9 9 10 12 12 12 12 12 10 8 9 11 9 11 16 13 10 8 9 11 11 16 17 16
2 2 2 1 1 0 1 1 -0 -0 -0 2 8 8 2 3 12 13 11 11 10 10 9 10 10 10 9 12 14 12 11 9 8 9 10 10 13 17 15 12 11 12 11 11 11 13 16
0 1 1 1 1 1 0 1 1 -0 -1 1 8 10 8 5 8 10 12 12 12 8 9 8 9 9 11 12 11 13 12 9 7 8 7 8 11 15 18 15 13 14 12 11 12 16 15
0 -0 -0 0 0 0 1 0 1 -0 -1 1 8 10 7 11 10 10 9 9 11 12 8 7 8 9 11 13 12 12 11 10 8 6 8 10 14 13 12 12 12 12 12 12 12 12 14
0 -0 -0 -0 -0 -0 0 -0 -0 0 -1 3 9 10 6 9 7 9 9 10 10 9 8 9 9 8 8 11 10 12 10 11 11 9 9 9 14 12 13 11 11 12 12 12 11 10 11
-1 -1 -1 -1 -0 -1 -1 -0 -0 -0 -1 5 8 6 6 8 9 10 10 9 9 7 7 6 7 8 9 8 7 7 7 7 8 9 10 11 13 14 16 11 12 15 12 10 10 9 10
-1 -1 -1 -1 -1 -0 -1 -1 -1 -0 -0 6 8 5 9 11 9 10 8 8 8 8 9 6 6 8 6 4 5 6 7 7 7 8 7 11 12 13 16 14 20 12 8 8 9 9 9
-0 -1 -1 -1 -1 -0 -0 -0 -1 -0 1 5 5 7 9 10 9 8 8 8 7 7 7 7 6 5 5 6 10 12 12 10 9 8 8 8 11 14 16 16 13 12 10 11 11 11 8
0 -0 -1 -1 -1 -1 -0 0 -0 1 0 4 5 4 8 9 10 6 8 7 9 9 9 7 5 4 5 10 12 15 15 12 13 10 7 8 8 13 15 17 21 13 8 6 7 14 8
0 -0 -1 -1 -1 -1 -1 0 -0 1 0 3 4 4 5 9 7 6 9 9 7 8 10 8 8 8 6 13 16 15 15 10 15 14 13 13 13 14 14 16 13 9 7 6 14 14 8
0 0 -0 -1 -1 -1 -1 0 1 1 1 2 3 2 5 7 6 5 5 7 7 8 11 8 9 10 12 14 15 14 15 12 13 12 12 13 14 15 14 16 18 7 8 12 9 8 7
0 0 -0 -1 -1 -1 -1 -1 -0 1 1 1 4 2 2 7 7 4 4 3 3 4 6 7 8 8 9 13 13 13 14 13 12 16 8 14 12 14 12 13 8 7 8 7 6 7 7